Volver al catálogo

STARLINK-30421

ActivoComunicacionesVLEO
NORAD 58107·PAYLOAD·🇺🇸 United States

Lanzado Oct 21, 2023 desde Vandenberg Space Force Base

Loading…

Próximos Pases (próximas 24 horas)

TLE

ActualizadoSource: CelesTrak SupGP

Época: Sep 15, 2026, 01:52 UTC

1 58107C 23161L   26258.07826389  .00063167  00000+0  18669-2 0  2582
2 58107  53.1598 348.7481 0001160  89.5058 356.1629 15.34349069    19

Sigue STARLINK-30421 en tiempo real con AllMySat

Download on the App Store